Terug naar catalogus

STARLINK-35220

ActiefCommunicatieSSO
NORAD 65661·PAYLOAD·🇺🇸 United States

Gelanceerd Sep 19, 2025 vanaf Vandenberg Space Force Base

Loading…

Volgende Passages (komende 24 uur)

TLE

VersSource: CelesTrak SupGP

Epoch: Sep 14, 2026, 23:15 UTC

1 65661C 25211K   26257.96923611  .00069139  00000+0  21470-2 0  2574
2 65661  97.2836 298.2979 0001150  87.5573  33.6498 15.33393659    10

Volg STARLINK-35220 in realtime met AllMySat

Download on the App Store